Location: Bottenau
(48.5138°N, 8.0462°E)
Time: 15:50:14
(UTC+00:00)

Cosmos 2221 - Pass Details

Date: 18 April 2021
Orbit: 593 x 615 km, 82.5° (Epoch: 06 May)

Event Time Altitude Azimuth Distance (km) Brightness Sun altitude
Exits shadow 20:53:19 19° 63° (ENE) 1,424 4.3 -21.4°
Drops below altitude 10° 20:55:22 10° 37° (NE) 1,939 5.2 -21.6°
Sets 20:57:57 0° 22° (NNE) 2,849 6.3 -21.9°
